OBJECT D, 67677

Orbit data source: Space-Track

You're viewing an Uncataloged Satellite

Recently launched and/or uncataloged satellites may have evolving metadata. Metadata may include but not limited to: Owner, Maufacturer, Bus, Motor, and Mission.

OBJECT D, 67677 is a satellite owned by VVKO VKS (CIS) in SSO that was launched on Thu, 05 Feb 2026 UTC via a SOYUZ-2-1B launch vehicle from the Plesetsk Missile And Space Complex (PKMTR). Unknown objects in Earth's orbit typically refer to objects detected orbiting the Earth but have not yet been identified or cataloged. These objects could be anything from previously untracked satellites, spent rocket stages, debris from satellite collisions, or even natural meteoroids temporarily captured by Earth's gravity.

Loading next visibility...
Identifier
67677, 2026-023D
Orbit
SSO
Country
Flag of CISCIS
Related business
Manufacturer
Unknown (RU)
Mission
Spacecraft
Bus & Motor
UNK, Unknown motor
Mass
~500 kg wet, ~500 kg dry
Launch date (UTC)
2026-02-05 (1 month ago)
Launch vehicle
SOYUZ-2-1B
Launch site
Plesetsk Missile And Space Complex (PKMTR)
Object type
Unknown
Shape & HBR
Unknown
Radar Cross Section
RCS unknown

Expand to show TLE details & history
Last TLE update: 15 hours ago

TLE from 15 hours ago
0 OBJECT D
1 67677U 26023D   26071.74409010  .00012245  00000-0  51980-3 0  9997
2 67677  96.6415 144.3538 0020818 117.4371 242.8988 15.23000392  5312
Epoch: 2026-03-12T17:51Z
TLE epoch observation values (Epoch: 2026-03-12T17:51:29.384Z)
Latitude
-0.00006°
Longitude
66.09179°
Altitude
506.457 km
Speed
7.607 km/s
True Right ascension
09h 37m 24s
True Declination
0° 00' 00"
Sunlit
Object was in full shadow at epoch
Visualization orbit readout
Latitude
Unknown
Longitude
Unknown
Altitude
Unknown
Speed
Unknown
Apparent Right ascension
Unknown
Apparent Declination
Unknown
Sunlit
N/A
Visualization observer readout
Local Sidereal Time
13:01:55
Azimuth
Unknown
Elevation
Unknown
Doppler factor
Unknown
Orbital elements
Apogee altitude
508.033 km
Perigee altitude
479.421 km
Semi-major axis
6,871.864 km
Eccentricity
0.00208
Inclination
96.6415°
RAAN
144.3538°
Arg. of periapsis
117.4371°
True anomaly
242.68669°
Mean anomaly
242.8988°
Eccentric anomaly
242.79272°
Mean motion
3.81006 °/min
Orbital period
94.49 mins
BSTAR
0.0005198
Loading maneuver chart data...
Computing Atmospheric mass density...
Loading historical data...
Loading historical data...
Loading historical data...
Loading historical data...
Loading historical data...
Loading historical data...
Loading historical data...

Documentation

Showing up to 5 results
|